{"data":{"norad_id":59157,"epoch":"2026-09-20T22:18:22.692384Z","epoch_age_seconds":121714,"freshness":"FRESH","line1":"1 59157U 24044F   26263.92942931  .00000109  00000+0  13505-4 0  9996","line2":"2 59157  43.0020  87.9705 0001315 268.3199  91.7502 15.27576796143380","mean_motion":15.27576796,"eccentricity":0.0001315,"inclination_deg":43.002,"raan_deg":87.9705,"arg_perigee_deg":268.3199,"mean_anomaly_deg":91.7502,"bstar":1.3505e-5,"rev_number":14338,"period_min":94.266946432459,"perigee_km":482.15644275182,"apogee_km":483.96093721829,"semimajor_km":6861.1956899851,"source":"CELESTRAK","updated_at":"2026-09-21T09:00:34.039113Z"}}